GEFSMW_prec_meanprecacc_174.txt.gz
Total_Precipitation_Accumulation
0.17 0.17 0.17 0.20 0.21 0.24 0.30 0.35 0.40 0.55 0.70 0.80 0.92 1.11 1.28 1.46 1.62 1.74 1.63 1.49 1.45 1.61 1.72 1.65 1.73 1.77 1.63 1.62 1.67 1.73 1.68 1.42 1.28 1.35 1.24 0.97 0.74 0.80 0.79 0.76 0.80 0.87 0.98
0.12 0.09 0.08 0.10 0.12 0.15 0.19 0.24 0.31 0.42 0.55 0.71 0.94 1.16 1.46 1.55 1.64 1.78 1.82 1.76 1.69 1.84 1.88 1.96 2.02 2.05 2.04 2.00 1.89 1.97 2.05 1.80 1.57 1.66 1.94 1.53 1.14 0.81 0.66 0.75 0.78 0.88 1.12
0.10 0.06 0.06 0.06 0.09 0.11 0.12 0.18 0.30 0.44 0.66 0.89 1.20 1.50 1.73 1.81 1.86 1.81 1.88 1.97 2.02 2.08 2.10 2.16 2.22 2.22 2.07 2.05 2.14 2.24 2.55 2.36 2.02 1.84 2.06 1.85 1.53 1.25 0.84 0.77 0.84 0.93 1.10
0.11 0.08 0.08 0.08 0.09 0.12 0.16 0.26 0.42 0.63 0.90 1.23 1.58 1.82 2.05 2.15 2.00 1.98 2.01 2.03 1.98 2.01 2.12 2.14 2.13 2.10 2.03 2.09 2.15 2.19 2.56 2.73 2.43 2.12 1.79 1.57 1.54 1.57 1.26 0.94 0.89 0.99 1.01
0.17 0.14 0.15 0.16 0.19 0.25 0.33 0.48 0.72 1.01 1.29 1.52 1.70 1.92 2.05 2.07 2.05 2.02 2.00 1.93 1.91 1.87 1.91 1.93 2.01 2.04 2.08 2.14 2.29 2.39 2.61 2.63 2.63 2.46 2.27 2.05 1.75 1.40 1.43 1.37 1.13 1.11 1.03
0.21 0.22 0.24 0.30 0.37 0.42 0.55 0.73 0.91 1.19 1.36 1.48 1.60 1.79 1.94 1.99 2.01 1.99 1.99 1.98 1.95 1.85 1.79 1.76 1.82 1.94 2.11 2.17 2.25 2.38 2.60 2.71 2.78 2.71 2.45 2.35 2.17 1.87 1.74 1.49 1.36 1.36 1.18
0.28 0.29 0.38 0.53 0.62 0.65 0.73 0.88 0.96 1.12 1.23 1.27 1.37 1.52 1.60 1.66 1.72 1.71 1.67 1.62 1.57 1.56 1.58 1.66 1.75 1.89 2.01 2.09 2.20 2.34 2.38 2.49 2.73 2.74 2.57 2.36 2.14 2.11 2.00 1.88 1.56 1.39 1.22
0.44 0.55 0.68 0.78 0.85 0.86 0.82 0.83 0.96 1.01 0.98 1.01 1.03 1.15 1.25 1.31 1.38 1.39 1.38 1.41 1.44 1.45 1.39 1.43 1.53 1.76 1.97 2.05 2.14 2.15 2.13 2.18 2.36 2.37 2.43 2.39 2.10 2.04 1.94 1.93 1.99 1.72 1.52
0.68 0.90 1.08 1.19 1.27 1.18 0.98 0.84 0.85 0.84 0.81 0.86 0.91 0.96 1.06 1.10 1.13 1.17 1.13 1.23 1.27 1.25 1.19 1.21 1.25 1.38 1.62 1.88 2.04 1.98 1.90 1.87 2.02 2.09 2.17 2.28 2.30 2.21 2.11 2.07 2.11 2.04 1.80
1.11 1.36 1.60 1.73 1.70 1.50 1.23 0.94 0.79 0.75 0.71 0.74 0.79 0.86 0.90 0.91 0.90 0.93 0.89 0.97 1.05 1.05 1.05 1.04 1.09 1.22 1.33 1.54 1.78 1.88 1.83 1.80 1.85 1.96 2.09 2.22 2.32 2.37 2.17 2.13 2.09 1.95 1.84
1.54 1.68 1.83 1.88 1.62 1.44 1.19 0.92 0.77 0.80 0.80 0.79 0.79 0.80 0.78 0.76 0.75 0.74 0.72 0.75 0.81 0.81 0.84 1.00 1.06 1.14 1.22 1.39 1.65 1.83 1.84 1.76 1.77 1.77 1.85 2.02 2.11 2.33 2.30 2.21 2.10 1.96 1.79
1.29 1.37 1.42 1.38 1.34 1.29 1.11 0.95 0.85 0.86 0.89 0.88 0.87 0.80 0.71 0.68 0.68 0.65 0.58 0.60 0.58 0.57 0.69 0.82 0.87 0.91 0.96 1.14 1.44 1.63 1.67 1.64 1.56 1.55 1.67 1.90 2.07 2.28 2.38 2.34 2.19 2.09 1.94
1.11 1.11 1.11 1.12 1.15 1.13 1.00 0.98 0.95 0.95 0.95 0.93 0.84 0.75 0.69 0.60 0.56 0.49 0.46 0.53 0.54 0.59 0.69 0.79 0.85 0.87 0.93 0.96 1.07 1.23 1.36 1.35 1.29 1.33 1.40 1.46 1.67 1.95 2.14 2.15 2.17 2.20 2.16
0.87 0.87 0.92 0.95 1.04 1.02 0.98 0.92 0.88 0.93 1.02 1.07 0.97 0.86 0.74 0.63 0.57 0.50 0.46 0.45 0.48 0.54 0.62 0.67 0.74 0.82 0.88 0.89 0.91 0.94 1.01 1.03 1.09 1.15 1.21 1.25 1.30 1.53 1.71 1.81 1.99 2.22 2.22
0.56 0.61 0.65 0.64 0.62 0.59 0.62 0.65 0.71 0.81 0.96 1.09 1.07 0.93 0.74 0.62 0.55 0.51 0.44 0.43 0.44 0.45 0.52 0.59 0.62 0.68 0.76 0.85 0.88 0.76 0.73 0.80 0.91 0.95 0.93 0.96 1.04 1.17 1.28 1.35 1.71 2.05 2.23
0.33 0.32 0.32 0.34 0.34 0.31 0.28 0.28 0.36 0.50 0.75 1.00 0.98 0.76 0.59 0.47 0.43 0.43 0.41 0.38 0.37 0.43 0.49 0.48 0.51 0.63 0.66 0.80 0.77 0.61 0.60 0.63 0.74 0.83 0.83 0.74 0.74 0.79 0.86 0.94 1.12 1.41 1.66
0.21 0.21 0.21 0.21 0.20 0.20 0.18 0.20 0.28 0.40 0.56 0.67 0.63 0.53 0.42 0.40 0.42 0.44 0.39 0.37 0.37 0.39 0.42 0.42 0.43 0.49 0.63 0.66 0.52 0.49 0.52 0.60 0.65 0.71 0.77 0.70 0.61 0.69 0.74 0.84 0.91 0.93 1.02
0.12 0.12 0.12 0.13 0.15 0.16 0.20 0.23 0.28 0.35 0.40 0.42 0.42 0.36 0.33 0.33 0.36 0.37 0.37 0.43 0.47 0.45 0.45 0.47 0.48 0.48 0.54 0.51 0.41 0.44 0.47 0.53 0.58 0.66 0.75 0.80 0.72 0.72 0.84 0.84 0.88 0.84 0.80
0.04 0.04 0.03 0.03 0.05 0.05 0.07 0.09 0.11 0.13 0.14 0.14 0.15 0.14 0.14 0.16 0.17 0.18 0.24 0.36 0.42 0.44 0.47 0.51 0.51 0.48 0.45 0.45 0.38 0.39 0.47 0.52 0.57 0.59 0.65 0.72 0.70 0.83 0.92 0.92 1.06 1.03 0.91
0.01 0.01 0.01 0.00 0.00 0.00 0.01 0.01 0.02 0.02 0.03 0.02 0.02 0.03 0.03 0.04 0.05 0.08 0.11 0.18 0.21 0.27 0.35 0.37 0.40 0.44 0.43 0.53 0.41 0.41 0.47 0.56 0.66 0.67 0.65 0.78 0.78 0.84 0.83 0.83 1.06 1.08 0.95
0.01 0.01 0.01 0.01 0.01 0.00 0.00 0.01 0.01 0.01 0.01 0.01 0.01 0.01 0.01 0.01 0.02 0.03 0.05 0.09 0.10 0.15 0.20 0.24 0.30 0.37 0.43 0.53 0.51 0.55 0.57 0.64 0.77 0.75 0.67 0.61 0.71 0.60 0.66 0.72 0.77 0.98 0.98
0.01 0.01 0.00 0.00 0.01 0.01 0.00 0.00 0.01 0.01 0.01 0.02 0.01 0.01 0.01 0.02 0.02 0.02 0.04 0.05 0.06 0.09 0.12 0.14 0.18 0.25 0.31 0.39 0.46 0.47 0.52 0.60 0.70 0.75 0.64 0.61 0.67 0.52 0.51 0.53 0.64 0.79 0.90
0.01 0.01 0.00 0.00 0.01 0.01 0.00 0.01 0.01 0.01 0.02 0.02 0.02 0.02 0.02 0.02 0.03 0.04 0.05 0.05 0.05 0.08 0.10 0.13 0.19 0.26 0.33 0.36 0.33 0.31 0.34 0.42 0.54 0.57 0.59 0.58 0.55 0.50 0.46 0.47 0.54 0.62 0.73
0.01 0.01 0.01 0.01 0.01 0.01 0.00 0.00 0.01 0.01 0.01 0.02 0.01 0.02 0.02 0.02 0.03 0.04 0.05 0.06 0.06 0.08 0.12 0.18 0.23 0.28 0.32 0.35 0.33 0.35 0.38 0.39 0.43 0.43 0.43 0.45 0.48 0.52 0.50 0.47 0.51 0.59 0.69
0.01 0.01 0.01 0.01 0.01 0.01 0.01 0.00 0.00 0.01 0.01 0.01 0.01 0.01 0.02 0.03 0.03 0.03 0.03 0.05 0.05 0.07 0.15 0.22 0.27 0.27 0.27 0.23 0.24 0.35 0.46 0.53 0.59 0.65 0.59 0.60 0.61 0.58 0.52 0.49 0.49 0.54 0.60
0.01 0.01 0.01 0.01 0.01 0.01 0.00 0.00 0.00 0.00 0.01 0.01 0.01 0.01 0.02 0.03 0.03 0.04 0.04 0.05 0.06 0.10 0.12 0.12 0.14 0.15 0.15 0.15 0.18 0.25 0.36 0.45 0.58 0.75 0.78 0.81 0.84 0.77 0.67 0.58 0.50 0.45 0.48

GEFSMW_prec_meanprecacc_180.txt.gz
Total_Precipitation_Accumulation
0.17 0.17 0.17 0.20 0.21 0.24 0.30 0.36 0.41 0.57 0.71 0.80 0.92 1.11 1.29 1.46 1.62 1.74 1.63 1.49 1.45 1.61 1.72 1.65 1.73 1.77 1.64 1.63 1.68 1.75 1.69 1.44 1.29 1.37 1.26 0.99 0.75 0.82 0.81 0.78 0.82 0.88 0.99
0.12 0.09 0.08 0.10 0.13 0.15 0.20 0.25 0.32 0.43 0.56 0.71 0.94 1.16 1.46 1.55 1.64 1.78 1.82 1.76 1.69 1.84 1.88 1.96 2.02 2.06 2.05 2.01 1.90 1.98 2.07 1.81 1.59 1.70 1.98 1.57 1.16 0.83 0.67 0.76 0.79 0.89 1.13
0.10 0.06 0.06 0.06 0.10 0.11 0.13 0.19 0.30 0.45 0.66 0.89 1.20 1.50 1.73 1.81 1.86 1.82 1.88 1.97 2.02 2.08 2.10 2.16 2.22 2.22 2.07 2.06 2.15 2.24 2.57 2.38 2.03 1.86 2.10 1.89 1.55 1.27 0.86 0.80 0.85 0.94 1.12
0.11 0.08 0.08 0.08 0.09 0.12 0.16 0.27 0.43 0.63 0.90 1.24 1.58 1.82 2.05 2.15 2.00 1.98 2.02 2.03 1.98 2.01 2.12 2.14 2.13 2.10 2.04 2.10 2.16 2.19 2.57 2.75 2.45 2.13 1.80 1.59 1.55 1.60 1.29 0.96 0.91 1.01 1.03
0.17 0.14 0.16 0.16 0.20 0.26 0.33 0.49 0.73 1.02 1.29 1.52 1.70 1.92 2.05 2.07 2.05 2.02 2.01 1.94 1.91 1.87 1.91 1.93 2.01 2.04 2.09 2.14 2.30 2.40 2.62 2.64 2.64 2.47 2.28 2.07 1.77 1.43 1.46 1.40 1.15 1.12 1.04
0.21 0.22 0.24 0.30 0.38 0.42 0.56 0.73 0.91 1.19 1.37 1.48 1.60 1.79 1.94 1.99 2.01 1.99 1.99 1.98 1.95 1.85 1.79 1.76 1.82 1.94 2.11 2.17 2.25 2.38 2.61 2.71 2.79 2.71 2.46 2.36 2.19 1.89 1.77 1.53 1.39 1.38 1.19
0.28 0.29 0.38 0.53 0.62 0.66 0.74 0.88 0.96 1.13 1.24 1.29 1.37 1.52 1.60 1.66 1.72 1.71 1.67 1.62 1.57 1.56 1.58 1.66 1.75 1.89 2.01 2.09 2.20 2.34 2.39 2.49 2.73 2.74 2.58 2.37 2.15 2.12 2.01 1.90 1.59 1.41 1.24
0.44 0.55 0.68 0.78 0.85 0.86 0.82 0.84 0.96 1.01 0.99 1.02 1.03 1.15 1.25 1.31 1.38 1.39 1.38 1.41 1.44 1.45 1.39 1.43 1.53 1.77 1.97 2.05 2.14 2.15 2.13 2.18 2.36 2.37 2.43 2.40 2.11 2.05 1.96 1.94 2.01 1.74 1.55
0.68 0.90 1.08 1.19 1.27 1.18 0.98 0.84 0.85 0.84 0.81 0.87 0.91 0.96 1.06 1.10 1.13 1.17 1.13 1.23 1.27 1.25 1.19 1.21 1.25 1.38 1.62 1.88 2.04 1.98 1.90 1.87 2.02 2.09 2.18 2.29 2.30 2.22 2.12 2.08 2.13 2.06 1.82
1.11 1.36 1.60 1.73 1.70 1.50 1.23 0.95 0.79 0.75 0.71 0.74 0.79 0.86 0.90 0.91 0.91 0.94 0.89 0.97 1.05 1.05 1.05 1.04 1.09 1.22 1.33 1.54 1.78 1.88 1.83 1.80 1.85 1.96 2.09 2.22 2.32 2.37 2.18 2.14 2.10 1.96 1.86
1.54 1.69 1.83 1.88 1.62 1.44 1.19 0.92 0.77 0.80 0.80 0.79 0.79 0.80 0.78 0.76 0.75 0.74 0.73 0.75 0.81 0.81 0.84 1.00 1.06 1.14 1.22 1.39 1.65 1.83 1.84 1.76 1.77 1.77 1.85 2.02 2.11 2.33 2.30 2.22 2.11 1.97 1.80
1.29 1.37 1.42 1.38 1.34 1.29 1.11 0.95 0.86 0.86 0.89 0.88 0.87 0.80 0.72 0.68 0.68 0.65 0.58 0.60 0.58 0.57 0.69 0.82 0.87 0.91 0.96 1.14 1.44 1.63 1.67 1.64 1.56 1.55 1.67 1.90 2.07 2.28 2.38 2.34 2.20 2.10 1.95
1.11 1.11 1.11 1.12 1.15 1.13 1.00 0.98 0.96 0.95 0.95 0.93 0.84 0.76 0.69 0.61 0.56 0.49 0.46 0.53 0.55 0.59 0.70 0.80 0.85 0.87 0.93 0.96 1.07 1.23 1.36 1.35 1.29 1.33 1.40 1.46 1.67 1.95 2.14 2.16 2.17 2.21 2.17
0.87 0.87 0.92 0.95 1.04 1.02 0.98 0.93 0.89 0.93 1.02 1.07 0.97 0.86 0.75 0.64 0.58 0.51 0.46 0.45 0.48 0.55 0.62 0.68 0.74 0.82 0.88 0.89 0.91 0.94 1.01 1.03 1.09 1.15 1.21 1.25 1.30 1.53 1.71 1.81 1.99 2.22 2.23
0.56 0.61 0.65 0.65 0.62 0.59 0.63 0.66 0.72 0.83 0.97 1.10 1.08 0.94 0.75 0.62 0.56 0.51 0.45 0.43 0.44 0.45 0.52 0.59 0.62 0.68 0.77 0.85 0.88 0.76 0.73 0.80 0.91 0.95 0.93 0.96 1.04 1.17 1.28 1.35 1.71 2.05 2.23
0.33 0.32 0.32 0.34 0.35 0.32 0.29 0.28 0.36 0.52 0.76 1.02 0.99 0.77 0.59 0.48 0.43 0.43 0.42 0.38 0.38 0.44 0.49 0.48 0.51 0.63 0.66 0.80 0.77 0.61 0.60 0.63 0.74 0.83 0.83 0.74 0.74 0.79 0.86 0.94 1.12 1.41 1.66
0.21 0.21 0.21 0.21 0.21 0.20 0.18 0.20 0.28 0.40 0.57 0.67 0.64 0.54 0.44 0.41 0.44 0.46 0.41 0.39 0.39 0.41 0.43 0.43 0.44 0.50 0.63 0.66 0.52 0.50 0.52 0.60 0.65 0.72 0.77 0.70 0.61 0.69 0.74 0.84 0.91 0.93 1.02
0.12 0.12 0.12 0.13 0.15 0.16 0.20 0.24 0.28 0.35 0.40 0.42 0.43 0.38 0.35 0.37 0.39 0.39 0.39 0.45 0.50 0.48 0.47 0.48 0.48 0.48 0.54 0.51 0.41 0.44 0.47 0.53 0.58 0.67 0.75 0.80 0.72 0.72 0.84 0.84 0.88 0.84 0.80
0.04 0.04 0.03 0.03 0.05 0.05 0.07 0.09 0.11 0.13 0.15 0.14 0.15 0.14 0.14 0.16 0.18 0.19 0.25 0.37 0.43 0.46 0.48 0.51 0.52 0.48 0.46 0.46 0.38 0.40 0.47 0.52 0.57 0.59 0.65 0.72 0.70 0.83 0.92 0.92 1.06 1.04 0.92
0.01 0.01 0.01 0.01 0.00 0.00 0.01 0.01 0.02 0.02 0.03 0.02 0.02 0.03 0.03 0.04 0.05 0.08 0.11 0.18 0.21 0.27 0.36 0.38 0.41 0.45 0.44 0.53 0.42 0.42 0.47 0.56 0.66 0.67 0.65 0.78 0.78 0.84 0.83 0.83 1.06 1.08 0.95
0.01 0.01 0.01 0.01 0.01 0.01 0.00 0.01 0.01 0.01 0.01 0.01 0.01 0.01 0.01 0.01 0.02 0.03 0.05 0.09 0.11 0.16 0.20 0.24 0.31 0.38 0.44 0.54 0.52 0.56 0.58 0.64 0.77 0.75 0.67 0.61 0.71 0.60 0.66 0.72 0.77 0.99 0.98
0.01 0.01 0.00 0.01 0.01 0.01 0.01 0.01 0.01 0.01 0.01 0.02 0.01 0.01 0.01 0.02 0.02 0.03 0.04 0.06 0.07 0.09 0.12 0.14 0.19 0.26 0.32 0.40 0.47 0.48 0.53 0.61 0.71 0.76 0.64 0.61 0.67 0.53 0.51 0.53 0.64 0.79 0.90
0.01 0.01 0.00 0.00 0.01 0.01 0.00 0.01 0.01 0.01 0.02 0.02 0.02 0.02 0.02 0.02 0.03 0.04 0.05 0.05 0.06 0.08 0.11 0.14 0.21 0.27 0.34 0.38 0.35 0.33 0.36 0.44 0.55 0.57 0.60 0.59 0.55 0.50 0.46 0.47 0.54 0.62 0.73
0.01 0.01 0.01 0.01 0.01 0.01 0.01 0.00 0.01 0.01 0.01 0.02 0.02 0.02 0.02 0.03 0.04 0.05 0.06 0.07 0.07 0.09 0.13 0.19 0.25 0.30 0.34 0.37 0.35 0.37 0.40 0.40 0.44 0.44 0.43 0.45 0.48 0.52 0.50 0.47 0.51 0.59 0.69
0.01 0.01 0.01 0.01 0.01 0.01 0.01 0.01 0.01 0.01 0.01 0.01 0.01 0.01 0.02 0.03 0.03 0.04 0.04 0.05 0.06 0.08 0.16 0.23 0.28 0.29 0.28 0.24 0.26 0.37 0.47 0.54 0.60 0.66 0.60 0.60 0.61 0.58 0.52 0.49 0.49 0.54 0.60
0.01 0.01 0.01 0.01 0.01 0.01 0.00 0.00 0.00 0.00 0.01 0.01 0.01 0.01 0.02 0.03 0.03 0.04 0.04 0.05 0.07 0.11 0.13 0.14 0.16 0.17 0.17 0.17 0.20 0.26 0.37 0.46 0.59 0.75 0.78 0.81 0.84 0.77 0.67 0.58 0.50 0.45 0.48

GEFSMW_prec_meanprecacc_186.txt.gz
Total_Precipitation_Accumulation
0.18 0.17 0.18 0.20 0.22 0.25 0.31 0.37 0.42 0.57 0.71 0.80 0.92 1.11 1.29 1.46 1.62 1.74 1.63 1.49 1.45 1.61 1.72 1.65 1.74 1.77 1.64 1.63 1.68 1.75 1.70 1.44 1.30 1.38 1.27 0.99 0.76 0.83 0.83 0.80 0.83 0.89 1.00
0.13 0.10 0.08 0.11 0.13 0.15 0.20 0.26 0.33 0.44 0.56 0.71 0.94 1.16 1.46 1.55 1.64 1.78 1.82 1.76 1.69 1.84 1.88 1.96 2.02 2.06 2.05 2.01 1.90 1.98 2.08 1.81 1.60 1.71 1.98 1.57 1.17 0.84 0.69 0.78 0.80 0.90 1.14
0.11 0.07 0.06 0.07 0.11 0.11 0.13 0.19 0.30 0.45 0.67 0.89 1.20 1.50 1.73 1.81 1.86 1.82 1.88 1.97 2.02 2.08 2.10 2.16 2.22 2.22 2.07 2.06 2.15 2.24 2.57 2.39 2.04 1.86 2.11 1.90 1.56 1.28 0.87 0.81 0.87 0.96 1.13
0.11 0.09 0.08 0.08 0.09 0.12 0.16 0.27 0.43 0.63 0.90 1.24 1.58 1.82 2.05 2.15 2.00 1.98 2.02 2.03 1.98 2.01 2.12 2.14 2.13 2.10 2.04 2.10 2.16 2.19 2.57 2.75 2.45 2.14 1.81 1.60 1.57 1.62 1.31 0.97 0.93 1.02 1.05
0.17 0.15 0.16 0.16 0.20 0.26 0.33 0.49 0.73 1.02 1.30 1.52 1.71 1.92 2.05 2.07 2.05 2.02 2.01 1.94 1.91 1.87 1.91 1.93 2.01 2.04 2.09 2.14 2.30 2.40 2.62 2.64 2.65 2.47 2.29 2.08 1.79 1.44 1.47 1.41 1.16 1.13 1.05
0.21 0.22 0.24 0.30 0.38 0.42 0.56 0.74 0.91 1.20 1.38 1.49 1.61 1.80 1.94 1.99 2.01 1.99 1.99 1.98 1.95 1.85 1.79 1.76 1.82 1.94 2.11 2.17 2.25 2.38 2.61 2.71 2.79 2.72 2.46 2.37 2.20 1.91 1.77 1.53 1.39 1.38 1.20
0.29 0.29 0.39 0.53 0.62 0.66 0.74 0.89 0.96 1.13 1.24 1.30 1.38 1.53 1.60 1.66 1.72 1.71 1.67 1.62 1.57 1.56 1.58 1.66 1.75 1.89 2.01 2.09 2.21 2.35 2.39 2.50 2.73 2.74 2.58 2.38 2.16 2.12 2.02 1.90 1.59 1.42 1.26
0.44 0.55 0.68 0.78 0.85 0.86 0.83 0.84 0.97 1.01 0.99 1.02 1.04 1.16 1.25 1.32 1.39 1.39 1.38 1.41 1.45 1.45 1.39 1.43 1.53 1.77 1.97 2.05 2.14 2.16 2.13 2.18 2.36 2.37 2.43 2.40 2.12 2.06 1.96 1.95 2.02 1.75 1.55
0.69 0.91 1.09 1.19 1.27 1.18 0.99 0.85 0.85 0.84 0.82 0.87 0.92 0.97 1.06 1.11 1.14 1.18 1.13 1.23 1.27 1.25 1.20 1.22 1.25 1.38 1.62 1.88 2.04 1.98 1.90 1.87 2.02 2.09 2.18 2.29 2.30 2.22 2.12 2.09 2.14 2.07 1.82
1.12 1.37 1.61 1.73 1.70 1.51 1.24 0.95 0.80 0.75 0.72 0.74 0.80 0.87 0.91 0.92 0.91 0.96 0.91 0.97 1.06 1.05 1.05 1.05 1.09 1.23 1.33 1.54 1.78 1.88 1.83 1.80 1.85 1.96 2.09 2.22 2.32 2.37 2.18 2.14 2.11 1.96 1.86
1.55 1.69 1.84 1.88 1.63 1.44 1.19 0.93 0.78 0.80 0.80 0.80 0.80 0.81 0.78 0.77 0.76 0.75 0.73 0.76 0.82 0.81 0.84 1.01 1.07 1.14 1.22 1.39 1.65 1.83 1.84 1.76 1.77 1.77 1.85 2.02 2.11 2.33 2.30 2.22 2.11 1.97 1.80
1.30 1.38 1.43 1.38 1.34 1.30 1.12 0.96 0.86 0.87 0.90 0.89 0.88 0.80 0.72 0.69 0.69 0.66 0.59 0.61 0.59 0.58 0.69 0.83 0.87 0.91 0.96 1.15 1.44 1.64 1.67 1.64 1.56 1.55 1.67 1.90 2.07 2.28 2.38 2.34 2.20 2.10 1.96
1.12 1.12 1.12 1.13 1.16 1.13 1.01 0.99 0.96 0.97 0.97 0.94 0.84 0.76 0.69 0.61 0.56 0.50 0.46 0.53 0.55 0.61 0.71 0.81 0.86 0.88 0.94 0.97 1.07 1.23 1.36 1.35 1.29 1.33 1.40 1.46 1.67 1.95 2.14 2.16 2.17 2.21 2.18
0.89 0.89 0.93 0.96 1.04 1.03 0.99 0.94 0.89 0.94 1.04 1.08 0.98 0.87 0.76 0.65 0.60 0.52 0.48 0.47 0.51 0.57 0.65 0.71 0.77 0.84 0.89 0.90 0.92 0.95 1.01 1.03 1.09 1.15 1.21 1.25 1.30 1.53 1.71 1.81 1.99 2.22 2.24
0.58 0.63 0.66 0.65 0.63 0.60 0.63 0.66 0.73 0.84 0.99 1.12 1.10 0.95 0.77 0.64 0.58 0.54 0.47 0.46 0.47 0.48 0.55 0.62 0.65 0.69 0.77 0.86 0.88 0.77 0.73 0.80 0.91 0.95 0.93 0.96 1.04 1.17 1.28 1.35 1.71 2.05 2.23
0.35 0.34 0.34 0.35 0.35 0.32 0.29 0.29 0.37 0.52 0.77 1.03 1.01 0.79 0.61 0.49 0.45 0.45 0.45 0.41 0.40 0.45 0.50 0.49 0.53 0.64 0.67 0.81 0.78 0.61 0.60 0.64 0.74 0.83 0.83 0.74 0.74 0.79 0.86 0.94 1.12 1.41 1.66
0.23 0.23 0.22 0.21 0.21 0.20 0.19 0.20 0.28 0.40 0.57 0.68 0.65 0.56 0.45 0.43 0.46 0.48 0.43 0.42 0.41 0.42 0.44 0.43 0.45 0.51 0.64 0.68 0.53 0.50 0.53 0.60 0.66 0.72 0.78 0.71 0.61 0.69 0.74 0.84 0.91 0.93 1.02
0.14 0.13 0.13 0.13 0.15 0.16 0.20 0.24 0.28 0.35 0.40 0.43 0.43 0.39 0.37 0.38 0.41 0.42 0.41 0.47 0.51 0.49 0.48 0.49 0.49 0.49 0.55 0.54 0.43 0.46 0.48 0.53 0.59 0.67 0.76 0.81 0.73 0.72 0.84 0.84 0.88 0.84 0.80
0.05 0.05 0.04 0.04 0.05 0.06 0.07 0.09 0.11 0.13 0.15 0.14 0.15 0.15 0.15 0.17 0.19 0.21 0.27 0.38 0.44 0.47 0.50 0.54 0.54 0.50 0.47 0.48 0.40 0.42 0.49 0.53 0.58 0.59 0.65 0.72 0.70 0.83 0.92 0.92 1.06 1.04 0.92
0.02 0.02 0.01 0.02 0.02 0.01 0.01 0.02 0.02 0.03 0.03 0.03 0.03 0.04 0.04 0.05 0.06 0.09 0.13 0.19 0.22 0.27 0.37 0.39 0.42 0.46 0.45 0.55 0.43 0.44 0.49 0.57 0.66 0.67 0.65 0.79 0.79 0.85 0.84 0.83 1.06 1.08 0.96
0.03 0.02 0.02 0.02 0.02 0.02 0.01 0.02 0.03 0.03 0.02 0.03 0.02 0.02 0.02 0.02 0.03 0.04 0.06 0.10 0.12 0.17 0.21 0.26 0.31 0.39 0.46 0.56 0.53 0.57 0.59 0.65 0.77 0.76 0.68 0.62 0.71 0.61 0.67 0.72 0.77 0.99 0.98
0.02 0.02 0.01 0.01 0.02 0.02 0.02 0.02 0.02 0.02 0.02 0.03 0.02 0.02 0.02 0.03 0.03 0.03 0.05 0.07 0.08 0.10 0.13 0.15 0.20 0.28 0.34 0.42 0.48 0.50 0.55 0.62 0.71 0.76 0.64 0.61 0.68 0.53 0.51 0.53 0.64 0.79 0.90
0.01 0.01 0.01 0.01 0.01 0.01 0.01 0.01 0.02 0.02 0.02 0.02 0.02 0.02 0.03 0.03 0.04 0.05 0.06 0.06 0.07 0.09 0.11 0.14 0.22 0.29 0.36 0.39 0.37 0.34 0.38 0.46 0.56 0.58 0.60 0.59 0.55 0.50 0.46 0.47 0.54 0.62 0.73
0.01 0.01 0.01 0.01 0.01 0.01 0.01 0.01 0.02 0.02 0.02 0.02 0.02 0.02 0.03 0.03 0.04 0.06 0.07 0.08 0.08 0.09 0.14 0.19 0.25 0.31 0.34 0.37 0.36 0.38 0.42 0.42 0.45 0.44 0.44 0.46 0.48 0.52 0.50 0.47 0.51 0.59 0.69
0.01 0.01 0.01 0.01 0.01 0.01 0.01 0.01 0.01 0.01 0.01 0.01 0.01 0.01 0.02 0.03 0.04 0.04 0.04 0.06 0.06 0.09 0.16 0.23 0.29 0.29 0.29 0.25 0.26 0.38 0.48 0.55 0.61 0.66 0.60 0.60 0.61 0.58 0.52 0.49 0.49 0.54 0.60
0.01 0.01 0.01 0.01 0.01 0.01 0.01 0.00 0.00 0.01 0.01 0.01 0.01 0.01 0.02 0.03 0.04 0.04 0.04 0.05 0.07 0.11 0.14 0.14 0.17 0.18 0.18 0.18 0.21 0.27 0.38 0.47 0.60 0.75 0.78 0.82 0.84 0.78 0.67 0.58 0.50 0.46 0.48

GEFSMW_prec_meanprecacc_192.txt.gz
Total_Precipitation_Accumulation
0.18 0.18 0.18 0.21 0.23 0.26 0.32 0.37 0.43 0.59 0.72 0.81 0.92 1.11 1.29 1.46 1.62 1.74 1.63 1.49 1.45 1.61 1.72 1.65 1.74 1.77 1.64 1.63 1.68 1.75 1.70 1.44 1.30 1.38 1.27 1.00 0.76 0.84 0.83 0.80 0.84 0.91 1.02
0.13 0.10 0.09 0.11 0.14 0.16 0.21 0.26 0.33 0.44 0.56 0.71 0.94 1.16 1.46 1.55 1.64 1.78 1.82 1.76 1.69 1.84 1.88 1.96 2.02 2.06 2.05 2.01 1.90 1.98 2.08 1.81 1.60 1.71 1.99 1.57 1.17 0.85 0.69 0.78 0.82 0.93 1.16
0.11 0.07 0.07 0.07 0.11 0.11 0.13 0.20 0.31 0.45 0.67 0.89 1.21 1.50 1.73 1.81 1.86 1.82 1.88 1.97 2.02 2.08 2.10 2.16 2.22 2.22 2.07 2.06 2.15 2.24 2.57 2.39 2.04 1.86 2.11 1.90 1.57 1.28 0.87 0.82 0.88 0.97 1.14
0.12 0.09 0.08 0.08 0.10 0.12 0.16 0.27 0.44 0.63 0.90 1.24 1.59 1.82 2.05 2.15 2.00 1.98 2.02 2.03 1.98 2.01 2.12 2.14 2.13 2.10 2.04 2.10 2.16 2.19 2.57 2.75 2.45 2.14 1.81 1.60 1.57 1.62 1.31 0.98 0.94 1.03 1.05
0.18 0.15 0.16 0.16 0.20 0.26 0.33 0.49 0.73 1.03 1.30 1.53 1.71 1.92 2.05 2.07 2.05 2.02 2.01 1.94 1.91 1.87 1.91 1.93 2.01 2.04 2.09 2.14 2.30 2.40 2.62 2.65 2.65 2.47 2.29 2.08 1.79 1.44 1.48 1.41 1.17 1.13 1.06
0.22 0.22 0.24 0.30 0.38 0.43 0.56 0.74 0.91 1.20 1.38 1.49 1.61 1.80 1.95 1.99 2.01 1.99 1.99 1.98 1.95 1.85 1.79 1.76 1.82 1.94 2.11 2.17 2.25 2.38 2.61 2.71 2.79 2.72 2.46 2.37 2.20 1.91 1.78 1.54 1.39 1.38 1.20
0.30 0.30 0.39 0.53 0.62 0.66 0.75 0.89 0.96 1.13 1.25 1.30 1.38 1.53 1.60 1.67 1.72 1.71 1.67 1.62 1.57 1.56 1.58 1.66 1.75 1.89 2.01 2.09 2.21 2.35 2.39 2.50 2.73 2.74 2.58 2.38 2.16 2.12 2.02 1.90 1.59 1.42 1.26
0.46 0.56 0.68 0.78 0.85 0.86 0.83 0.84 0.97 1.02 0.99 1.03 1.04 1.16 1.26 1.32 1.39 1.39 1.38 1.41 1.45 1.45 1.39 1.43 1.53 1.77 1.97 2.05 2.14 2.16 2.13 2.18 2.36 2.37 2.43 2.40 2.12 2.06 1.96 1.95 2.02 1.75 1.56
0.70 0.92 1.09 1.20 1.27 1.18 0.99 0.85 0.86 0.85 0.82 0.87 0.92 0.97 1.06 1.11 1.15 1.18 1.14 1.23 1.27 1.25 1.20 1.22 1.26 1.39 1.62 1.88 2.04 1.98 1.90 1.87 2.02 2.09 2.18 2.29 2.30 2.22 2.12 2.09 2.14 2.07 1.82
1.13 1.38 1.61 1.73 1.70 1.51 1.24 0.96 0.80 0.76 0.72 0.75 0.81 0.87 0.91 0.93 0.92 0.96 0.91 0.97 1.06 1.05 1.05 1.05 1.10 1.23 1.33 1.54 1.78 1.88 1.83 1.80 1.85 1.96 2.09 2.22 2.32 2.37 2.18 2.14 2.11 1.96 1.86
1.56 1.70 1.85 1.88 1.63 1.44 1.20 0.93 0.78 0.81 0.81 0.80 0.80 0.81 0.79 0.77 0.76 0.76 0.73 0.76 0.82 0.81 0.85 1.02 1.08 1.15 1.22 1.40 1.65 1.83 1.84 1.77 1.77 1.77 1.85 2.02 2.11 2.33 2.30 2.22 2.11 1.97 1.80
1.30 1.38 1.44 1.39 1.34 1.30 1.12 0.96 0.87 0.88 0.91 0.90 0.88 0.80 0.72 0.69 0.69 0.66 0.60 0.61 0.59 0.58 0.70 0.84 0.88 0.92 0.97 1.15 1.44 1.64 1.68 1.65 1.56 1.55 1.67 1.90 2.07 2.28 2.38 2.34 2.20 2.10 1.96
1.12 1.12 1.13 1.14 1.16 1.13 1.01 0.99 0.97 0.98 0.97 0.95 0.85 0.76 0.70 0.61 0.56 0.50 0.47 0.54 0.55 0.61 0.72 0.82 0.88 0.90 0.95 0.98 1.08 1.24 1.36 1.35 1.30 1.33 1.40 1.46 1.67 1.95 2.14 2.16 2.17 2.21 2.18
0.90 0.89 0.94 0.97 1.05 1.03 0.99 0.94 0.89 0.94 1.04 1.09 0.98 0.87 0.76 0.65 0.60 0.52 0.48 0.47 0.51 0.57 0.65 0.72 0.79 0.87 0.93 0.93 0.93 0.96 1.02 1.04 1.09 1.16 1.21 1.25 1.30 1.53 1.71 1.81 1.99 2.22 2.24
0.59 0.64 0.67 0.67 0.64 0.60 0.63 0.66 0.73 0.84 0.99 1.12 1.10 0.95 0.77 0.64 0.58 0.54 0.47 0.46 0.47 0.49 0.56 0.63 0.67 0.72 0.81 0.90 0.91 0.78 0.74 0.81 0.92 0.95 0.94 0.97 1.04 1.18 1.28 1.36 1.71 2.05 2.23
0.36 0.34 0.35 0.36 0.36 0.32 0.29 0.29 0.37 0.53 0.78 1.03 1.01 0.79 0.62 0.50 0.45 0.46 0.45 0.42 0.41 0.46 0.51 0.51 0.55 0.66 0.70 0.84 0.82 0.64 0.61 0.65 0.75 0.84 0.83 0.74 0.74 0.79 0.87 0.95 1.13 1.41 1.66
0.25 0.25 0.24 0.22 0.21 0.21 0.19 0.21 0.29 0.41 0.58 0.69 0.65 0.56 0.46 0.43 0.47 0.49 0.44 0.43 0.43 0.44 0.46 0.45 0.47 0.52 0.66 0.70 0.56 0.53 0.55 0.62 0.67 0.73 0.78 0.71 0.61 0.69 0.75 0.84 0.92 0.94 1.02
0.16 0.16 0.16 0.15 0.17 0.18 0.21 0.24 0.28 0.35 0.40 0.43 0.44 0.39 0.37 0.39 0.41 0.43 0.43 0.49 0.54 0.52 0.50 0.51 0.51 0.50 0.56 0.55 0.45 0.48 0.50 0.55 0.60 0.68 0.77 0.81 0.73 0.73 0.84 0.84 0.88 0.84 0.80
0.08 0.07 0.07 0.06 0.08 0.07 0.08 0.09 0.12 0.14 0.15 0.15 0.16 0.16 0.16 0.18 0.21 0.22 0.28 0.40 0.46 0.49 0.51 0.55 0.56 0.51 0.49 0.50 0.42 0.43 0.50 0.55 0.59 0.60 0.66 0.73 0.71 0.84 0.92 0.93 1.06 1.04 0.92
0.05 0.04 0.03 0.04 0.04 0.04 0.03 0.02 0.03 0.03 0.03 0.03 0.03 0.05 0.06 0.07 0.08 0.11 0.15 0.21 0.23 0.28 0.38 0.41 0.43 0.47 0.46 0.57 0.46 0.46 0.50 0.58 0.67 0.68 0.66 0.79 0.79 0.85 0.84 0.83 1.06 1.08 0.96
0.06 0.04 0.04 0.04 0.04 0.04 0.03 0.03 0.03 0.03 0.03 0.03 0.03 0.04 0.04 0.04 0.05 0.06 0.08 0.12 0.13 0.18 0.22 0.26 0.32 0.40 0.46 0.56 0.54 0.59 0.60 0.66 0.78 0.76 0.68 0.62 0.72 0.61 0.67 0.72 0.78 0.99 0.98
0.05 0.04 0.03 0.03 0.04 0.03 0.03 0.03 0.03 0.02 0.03 0.03 0.03 0.03 0.03 0.04 0.04 0.05 0.07 0.08 0.10 0.12 0.14 0.16 0.21 0.29 0.35 0.42 0.49 0.50 0.55 0.63 0.72 0.77 0.65 0.62 0.69 0.54 0.52 0.54 0.64 0.79 0.90
0.03 0.03 0.02 0.02 0.03 0.03 0.03 0.03 0.03 0.03 0.02 0.03 0.02 0.03 0.03 0.04 0.05 0.06 0.08 0.08 0.08 0.10 0.12 0.15 0.22 0.29 0.36 0.40 0.37 0.35 0.39 0.46 0.56 0.59 0.61 0.60 0.56 0.51 0.47 0.47 0.54 0.62 0.73
0.03 0.03 0.03 0.03 0.03 0.03 0.04 0.04 0.03 0.03 0.02 0.02 0.02 0.03 0.03 0.04 0.05 0.06 0.08 0.09 0.09 0.10 0.14 0.20 0.26 0.31 0.35 0.37 0.36 0.39 0.42 0.43 0.45 0.45 0.44 0.46 0.49 0.52 0.50 0.47 0.51 0.59 0.69
0.04 0.04 0.05 0.04 0.04 0.04 0.05 0.06 0.06 0.04 0.03 0.02 0.02 0.02 0.03 0.03 0.04 0.04 0.05 0.06 0.07 0.09 0.16 0.23 0.29 0.30 0.29 0.25 0.27 0.39 0.49 0.56 0.61 0.67 0.60 0.61 0.62 0.58 0.53 0.50 0.50 0.55 0.60
0.03 0.03 0.03 0.03 0.02 0.02 0.02 0.03 0.03 0.04 0.04 0.03 0.03 0.02 0.03 0.04 0.04 0.05 0.05 0.06 0.07 0.11 0.14 0.15 0.17 0.18 0.18 0.19 0.21 0.28 0.38 0.48 0.60 0.76 0.79 0.83 0.85 0.79 0.68 0.59 0.51 0.46 0.49

GEFSMW_prec_meanprecacc_198.txt.gz
Total_Precipitation_Accumulation
0.20 0.19 0.19 0.22 0.25 0.28 0.34 0.40 0.45 0.61 0.74 0.82 0.93 1.11 1.29 1.46 1.62 1.74 1.64 1.50 1.45 1.62 1.73 1.66 1.74 1.77 1.65 1.64 1.68 1.75 1.70 1.44 1.31 1.38 1.27 1.00 0.77 0.84 0.84 0.81 0.86 0.92 1.03
0.15 0.11 0.09 0.12 0.15 0.18 0.22 0.27 0.34 0.45 0.58 0.72 0.95 1.16 1.46 1.55 1.64 1.78 1.82 1.76 1.69 1.85 1.88 1.96 2.03 2.06 2.05 2.02 1.90 1.98 2.08 1.82 1.60 1.71 1.99 1.58 1.18 0.85 0.69 0.79 0.83 0.94 1.17
0.11 0.08 0.07 0.07 0.12 0.13 0.14 0.21 0.32 0.46 0.67 0.90 1.22 1.50 1.73 1.81 1.86 1.82 1.88 1.97 2.02 2.08 2.10 2.16 2.22 2.22 2.07 2.07 2.15 2.25 2.58 2.39 2.04 1.86 2.11 1.90 1.58 1.29 0.88 0.82 0.89 0.97 1.14
0.12 0.09 0.09 0.09 0.10 0.13 0.17 0.28 0.45 0.64 0.91 1.25 1.60 1.83 2.06 2.15 2.00 1.98 2.02 2.03 1.98 2.01 2.12 2.14 2.13 2.10 2.04 2.10 2.16 2.20 2.57 2.76 2.46 2.14 1.81 1.61 1.58 1.63 1.32 0.98 0.94 1.03 1.05
0.18 0.15 0.17 0.17 0.20 0.26 0.33 0.49 0.74 1.03 1.31 1.53 1.72 1.93 2.06 2.07 2.05 2.02 2.01 1.94 1.91 1.87 1.91 1.93 2.01 2.04 2.09 2.14 2.30 2.40 2.63 2.65 2.65 2.47 2.29 2.08 1.79 1.45 1.49 1.42 1.17 1.13 1.06
0.22 0.23 0.25 0.31 0.38 0.43 0.56 0.74 0.91 1.20 1.38 1.49 1.61 1.80 1.95 1.99 2.01 2.00 1.99 1.98 1.95 1.86 1.79 1.76 1.82 1.94 2.11 2.17 2.25 2.38 2.61 2.71 2.79 2.72 2.46 2.37 2.21 1.91 1.78 1.54 1.40 1.39 1.20
0.30 0.30 0.39 0.54 0.62 0.66 0.75 0.89 0.96 1.14 1.25 1.30 1.38 1.53 1.60 1.67 1.72 1.71 1.67 1.62 1.57 1.56 1.58 1.66 1.76 1.89 2.01 2.09 2.21 2.35 2.39 2.50 2.73 2.74 2.58 2.38 2.16 2.13 2.02 1.91 1.60 1.43 1.26
0.46 0.56 0.69 0.78 0.85 0.86 0.83 0.84 0.97 1.02 1.00 1.03 1.04 1.16 1.26 1.32 1.39 1.39 1.39 1.42 1.45 1.46 1.39 1.43 1.53 1.77 1.97 2.05 2.14 2.16 2.13 2.18 2.36 2.37 2.43 2.40 2.12 2.06 1.96 1.95 2.02 1.76 1.56
0.71 0.92 1.10 1.20 1.27 1.18 0.99 0.85 0.86 0.85 0.82 0.88 0.92 0.97 1.07 1.12 1.15 1.18 1.14 1.23 1.27 1.25 1.20 1.22 1.26 1.39 1.63 1.88 2.04 1.98 1.90 1.87 2.02 2.09 2.18 2.29 2.30 2.22 2.12 2.09 2.14 2.07 1.82
1.14 1.39 1.62 1.73 1.70 1.51 1.24 0.96 0.80 0.76 0.73 0.75 0.81 0.87 0.92 0.93 0.92 0.96 0.91 0.97 1.06 1.05 1.05 1.06 1.10 1.23 1.34 1.55 1.78 1.88 1.83 1.80 1.85 1.96 2.09 2.22 2.32 2.37 2.18 2.14 2.11 1.96 1.86
1.56 1.71 1.86 1.89 1.63 1.44 1.20 0.93 0.79 0.81 0.81 0.80 0.80 0.81 0.79 0.78 0.77 0.76 0.74 0.76 0.82 0.81 0.85 1.02 1.08 1.15 1.23 1.40 1.66 1.83 1.84 1.77 1.77 1.77 1.85 2.02 2.11 2.33 2.30 2.22 2.11 1.97 1.80
1.31 1.39 1.45 1.40 1.35 1.30 1.12 0.96 0.87 0.88 0.91 0.90 0.88 0.81 0.73 0.70 0.69 0.67 0.60 0.61 0.59 0.58 0.70 0.84 0.89 0.92 0.97 1.15 1.45 1.64 1.68 1.65 1.56 1.55 1.67 1.90 2.07 2.28 2.38 2.34 2.20 2.10 1.96
1.13 1.13 1.14 1.14 1.16 1.14 1.02 1.00 0.97 0.98 0.97 0.95 0.85 0.77 0.70 0.62 0.57 0.50 0.47 0.54 0.55 0.62 0.73 0.83 0.88 0.90 0.95 0.98 1.08 1.24 1.37 1.35 1.30 1.33 1.40 1.46 1.67 1.95 2.14 2.16 2.17 2.21 2.18
0.90 0.90 0.94 0.98 1.05 1.03 1.00 0.94 0.90 0.94 1.04 1.09 0.98 0.87 0.76 0.66 0.61 0.52 0.48 0.47 0.51 0.58 0.66 0.72 0.79 0.87 0.93 0.93 0.94 0.96 1.03 1.05 1.10 1.16 1.21 1.25 1.30 1.53 1.71 1.81 1.99 2.22 2.24
0.59 0.64 0.67 0.67 0.64 0.60 0.64 0.67 0.73 0.84 0.99 1.12 1.10 0.96 0.77 0.64 0.58 0.54 0.47 0.46 0.47 0.49 0.56 0.63 0.67 0.73 0.81 0.90 0.93 0.80 0.76 0.83 0.94 0.97 0.95 0.97 1.04 1.18 1.28 1.36 1.71 2.05 2.23
0.37 0.35 0.35 0.36 0.36 0.32 0.29 0.29 0.37 0.53 0.78 1.03 1.01 0.79 0.62 0.50 0.45 0.46 0.46 0.42 0.41 0.46 0.52 0.51 0.55 0.67 0.70 0.85 0.83 0.65 0.63 0.67 0.77 0.86 0.86 0.76 0.74 0.79 0.87 0.95 1.13 1.41 1.66
0.25 0.25 0.24 0.23 0.22 0.21 0.19 0.21 0.29 0.41 0.58 0.69 0.66 0.56 0.46 0.44 0.47 0.49 0.44 0.43 0.43 0.44 0.46 0.46 0.47 0.53 0.66 0.71 0.57 0.54 0.56 0.63 0.68 0.74 0.80 0.73 0.63 0.70 0.75 0.84 0.92 0.94 1.02
0.16 0.17 0.16 0.16 0.17 0.18 0.21 0.25 0.29 0.35 0.40 0.43 0.44 0.39 0.37 0.39 0.42 0.43 0.43 0.49 0.55 0.52 0.51 0.52 0.51 0.51 0.57 0.56 0.46 0.49 0.51 0.56 0.61 0.69 0.78 0.83 0.76 0.75 0.85 0.85 0.88 0.84 0.80
0.08 0.08 0.07 0.07 0.08 0.08 0.09 0.10 0.12 0.14 0.15 0.15 0.16 0.16 0.17 0.19 0.21 0.23 0.29 0.40 0.47 0.50 0.52 0.56 0.56 0.52 0.49 0.50 0.42 0.44 0.51 0.56 0.60 0.61 0.66 0.74 0.72 0.86 0.94 0.94 1.07 1.04 0.92
0.06 0.05 0.04 0.04 0.05 0.04 0.03 0.03 0.03 0.03 0.03 0.03 0.04 0.06 0.07 0.07 0.09 0.11 0.16 0.22 0.23 0.29 0.38 0.41 0.44 0.48 0.47 0.58 0.46 0.46 0.50 0.59 0.68 0.70 0.67 0.81 0.80 0.87 0.86 0.84 1.07 1.09 0.97
0.06 0.06 0.05 0.05 0.05 0.05 0.04 0.03 0.03 0.03 0.03 0.03 0.03 0.04 0.05 0.05 0.05 0.07 0.09 0.13 0.14 0.19 0.22 0.27 0.33 0.40 0.48 0.58 0.56 0.60 0.61 0.67 0.79 0.77 0.69 0.63 0.74 0.63 0.69 0.74 0.78 1.00 0.99
0.06 0.05 0.04 0.05 0.05 0.05 0.05 0.04 0.04 0.03 0.03 0.04 0.03 0.03 0.04 0.05 0.05 0.05 0.07 0.09 0.11 0.13 0.15 0.17 0.22 0.29 0.36 0.43 0.49 0.51 0.56 0.64 0.73 0.78 0.66 0.63 0.70 0.55 0.53 0.55 0.66 0.80 0.91
0.05 0.05 0.05 0.04 0.05 0.05 0.04 0.04 0.04 0.04 0.04 0.03 0.03 0.03 0.04 0.05 0.05 0.07 0.08 0.08 0.09 0.11 0.13 0.16 0.23 0.30 0.37 0.41 0.38 0.36 0.39 0.47 0.56 0.60 0.63 0.62 0.57 0.52 0.48 0.48 0.55 0.63 0.73
0.05 0.05 0.06 0.05 0.06 0.07 0.06 0.07 0.05 0.04 0.03 0.03 0.02 0.03 0.04 0.04 0.05 0.07 0.08 0.09 0.10 0.11 0.15 0.21 0.27 0.32 0.36 0.39 0.37 0.40 0.43 0.43 0.46 0.46 0.45 0.47 0.50 0.53 0.50 0.47 0.51 0.59 0.70
0.06 0.08 0.09 0.07 0.06 0.08 0.08 0.10 0.10 0.07 0.04 0.03 0.02 0.02 0.03 0.04 0.04 0.05 0.05 0.07 0.07 0.10 0.17 0.24 0.29 0.30 0.30 0.26 0.28 0.39 0.49 0.56 0.62 0.67 0.61 0.61 0.62 0.58 0.53 0.50 0.50 0.55 0.61
0.05 0.05 0.07 0.07 0.05 0.05 0.07 0.08 0.09 0.10 0.09 0.06 0.03 0.03 0.03 0.04 0.05 0.05 0.05 0.06 0.08 0.12 0.15 0.15 0.17 0.18 0.18 0.19 0.22 0.28 0.39 0.48 0.60 0.76 0.79 0.83 0.85 0.79 0.69 0.60 0.51 0.47 0.49